Back to catalog

ARIANE 44L+ R/B

AliveGTO
NORAD 23177·ROCKET BODY·🇫🇷 France

Launched Jul 8, 1994 from Guiana Space Centre

Loading…

TLE

AgingSource: Space-Track

Epoch: Sep 14, 2026, 04:32 UTC

1 23177U 94040C   26257.18889306  .00000188  00000-0  61267-3 0  9994
2 23177   7.6449  73.7245 7182115  39.9634 355.2664  2.33320262266513

Track ARIANE 44L+ R/B in real time with AllMySat

Download on the App Store